Location: Gwatt
(46.7204°N, 7.6223°E)
Time: 03:50:10
(UTC+00:00)

S-56A Canister/Altair - Pass Details

Date: 27 January 2021
Orbit: 632 x 2501 km, 38.9° (Epoch: 08 March)

Event Time Altitude Azimuth Distance (km) Brightness Sun altitude
Exits shadow 05:35:34 12° 238° (WSW) 1,975 9.2 -14.4°
Maximum altitude 05:38:18 19° 199° (SSW) 1,747 9.3 -13.9°
Drops below altitude 10° 05:42:14 10° 156° (SSE) 2,544 10.7 -13.3°
Sets 05:45:57 0° 140° (SE) 3,790 12.0 -12.7°
